Погода в Усть-Цильме

Россия / Республика Коми     65°26′26″N   52°09′16″E
темп.,
°C
ветер,
м/с
пор.,
м/с
влажн.,
%
обл.,
%
осадки,
мм/ч
давл.,
гПа
погр.,
м
23 октября, сб
сб2300:000с2699100 1.8 978285
03:00−1ссз3798100 4.1 980377
06:00−2ссз3896100 1.2 982479
09:00−2ссз4989100 1.6 986673
12:000сз398560 0.1 989758
15:00−1сз39845 0.1 993346
18:00−3зсз311905 0.0 996277
21:00−5з28955 0.0 999160
24 октября, вс
вс2400:00−6зюз279722 0.0 1001126
03:00−6з279710 0.0 1003144
06:00−5з279799 0.0 1004160
09:00−2з2792100 0.0 1005239
12:00−1з2686100 0.0 1006289
15:00−3зюз1494100 0.0 100787
18:00−3зюз2596100 0.0 1007151
21:00−3зюз2698100 0.1 1007182
25 октября, пн
пн2500:00−2зюз2795100 0.1 1006298
03:00−2зюз3685100 0.1 1006593
06:00−4зюз3796100 0.1 1006392
09:00−4юз259393 0.4 1006259
12:00−2з2692100 0.4 1007494
15:00−2ссз5118681 0.8 1009833
18:00−5зсз39915 0.0 1011240
21:00−7з27945 0.0 1012156
26 октября, вт
вт2600:00−7зюз279766 0.0 1013145
03:00−7з279519 0.0 1013149
06:00−8зюз27945 0.0 1012136
09:00−6зюз398845 0.0 1013251
12:00−3з397950 0.0 1013409
15:00−5зюз388544 0.0 1012266
18:00−7зюз27955 0.0 1013131
21:00−8зюз269750 0.0 1013104
27 октября, ср
ср2700:00−10зюз119970 0.0 101419
03:00−10юз119997 0.0 101416
06:00−9ю119899 0.0 101316
09:00−6юв1390100 0.0 101294
12:00−4вюв2684100 0.0 1011280
15:00−4вюв3887100 0.0 1009378
18:00−4в4987100 0.0 1007709
21:00−5в41194100 0.8 1005694